Theta_e
327 329 332 326 328 333 332 331 328 328 324 328 331 333 331 330 330 331 332 333 334 332 329 325 321 326 334 334 332 330 325 322 316
331 328 328 331 327 331 333 331 326 327 328 328 331 331 330 329 331 333 333 332 329 325 323 320 316 320 330 329 330 329 319 324 322
330 330 328 325 323 330 333 332 329 327 333 331 330 331 331 330 331 333 328 329 331 329 323 316 312 317 333 330 329 321 329 328 325
329 330 328 328 324 325 331 332 332 329 327 332 332 332 331 331 332 333 333 332 331 330 325 319 315 320 330 326 323 327 332 329 326
328 329 329 328 328 325 327 329 330 327 327 327 330 331 331 332 333 333 331 330 330 328 327 319 315 321 328 326 325 326 330 329 326
329 328 329 328 328 326 327 328 329 327 329 328 328 331 332 332 332 332 331 329 328 330 324 314 315 328 329 327 324 327 330 328 326
330 328 329 329 328 328 327 327 329 328 330 329 328 330 330 331 331 330 329 329 327 329 328 315 316 324 328 328 325 326 330 328 326
323 330 329 329 329 329 329 329 329 330 328 330 328 328 329 330 330 330 329 326 324 323 322 316 319 321 326 327 326 320 327 326 326
320 328 329 328 327 325 326 327 329 330 330 328 330 328 327 327 328 326 328 326 325 321 322 315 319 321 327 328 325 321 321 323 324
323 327 330 330 329 329 326 325 328 330 330 330 330 329 328 327 326 328 328 328 326 323 321 318 323 321 325 329 328 326 315 325 324
323 327 329 329 329 329 330 330 327 327 328 329 330 331 329 328 325 324 329 325 329 328 324 320 320 325 322 330 329 326 321 320 327
322 325 325 327 327 327 328 328 329 330 329 327 327 329 330 330 328 326 326 326 321 324 328 323 321 318 327 325 328 326 321 317 322
321 320 321 322 323 323 323 324 324 327 328 328 329 328 328 328 327 326 325 319 316 316 324 325 324 321 319 328 326 326 323 318 318
315 316 317 319 319 320 320 321 320 321 324 326 326 327 327 328 328 328 326 324 317 321 322 319 322 321 321 324 328 328 328 324 318
312 312 312 312 313 315 316 317 318 318 318 318 321 323 325 325 325 324 325 323 325 325 325 321 317 316 320 323 327 329 329 328 322
311 311 311 311 311 311 311 313 314 316 317 318 318 316 318 320 322 324 325 323 324 324 321 324 324 322 322 323 327 327 329 330 328
308 308 309 309 308 308 309 311 312 312 312 313 315 316 316 317 319 320 323 322 320 320 321 324 325 324 324 321 323 328 326 329 331
306 307 307 307 307 307 307 307 309 309 310 310 311 314 317 318 319 320 321 323 324 324 323 322 323 324 325 325 325 326 327 327 327
303 304 304 304 304 305 306 306 306 307 308 309 309 309 311 312 314 316 320 321 321 322 322 322 323 324 324 324 324 324 325 325 325
294 296 297 298 299 300 303 304 305 305 306 306 307 308 309 309 309 313 314 315 318 317 318 319 321 320 321 323 324 323 322 322 323
Wind_Speed
12 10 9 7 6 10 10 9 9 10 10 11 13 14 14 14 14 15 16 16 15 13 11 9 10 11 13 12 10 8 6 7 6
13 12 11 10 8 9 10 10 8 10 12 12 14 15 14 15 15 16 15 14 13 11 10 10 10 12 13 13 11 8 10 9 6
16 13 12 12 11 10 11 11 9 9 11 14 15 16 15 16 16 16 14 12 8 8 9 8 9 14 17 13 11 10 12 11 9
19 17 14 13 12 12 12 13 11 10 12 14 16 17 16 17 17 17 15 12 10 9 9 9 9 14 16 13 10 12 15 12 10
22 19 17 14 13 13 13 14 14 13 14 16 17 18 17 19 18 16 14 12 10 9 9 9 10 14 16 13 10 16 16 12 9
24 21 19 17 15 15 14 15 16 15 15 17 19 20 21 21 20 18 15 13 10 11 9 9 12 15 19 14 15 15 17 15 12
16 23 20 19 16 15 16 16 17 17 19 19 22 23 22 23 22 21 18 16 13 14 13 9 15 17 20 19 20 21 19 18 17
18 22 23 20 18 18 17 16 19 21 21 22 24 25 25 25 24 22 20 19 17 17 18 12 14 20 22 23 16 18 23 23 24
17 16 24 22 23 24 19 19 23 22 23 26 26 26 26 27 25 23 22 21 21 19 18 15 16 21 23 26 21 12 21 25 22
11 14 15 20 24 23 30 29 26 24 23 25 27 29 28 27 28 27 25 24 24 22 20 19 19 21 24 27 26 22 18 27 24
9 11 16 14 15 16 11 19 25 22 24 26 28 30 30 31 30 29 28 25 26 25 24 23 24 23 25 30 30 27 21 27 28
3 8 11 13 13 15 16 20 18 20 24 26 27 28 28 34 36 29 29 28 30 28 29 28 28 25 26 28 31 30 28 27 34
3 8 12 11 10 11 11 13 18 19 21 17 21 25 26 27 29 32 36 34 30 33 28 36 32 31 28 31 32 34 31 28 34
10 13 11 11 12 12 12 13 14 15 17 17 18 19 22 23 25 31 31 33 32 34 35 31 35 38 34 32 33 36 36 31 33
12 14 16 16 17 17 17 18 17 18 21 22 23 23 21 19 26 27 32 31 33 32 32 33 35 41 44 34 36 36 39 38 34
11 12 13 13 13 16 18 18 18 16 19 21 24 28 26 24 27 22 31 32 33 29 33 39 38 38 38 38 40 38 36 42 39
13 13 13 13 14 13 14 13 14 13 14 14 17 13 17 21 24 21 20 33 33 34 38 39 43 40 42 45 42 41 39 41 43
13 12 13 14 14 13 14 12 11 11 9 7 7 6 6 9 13 14 18 17 20 22 25 29 34 38 36 46 47 44 41 43 42
11 12 12 11 11 12 11 11 10 10 12 8 9 13 15 10 14 14 8 5 12 16 18 19 26 30 32 28 36 39 39 40 41
11 11 11 11 10 9 7 7 9 9 9 9 7 8 13 16 11 14 19 18 11 11 12 14 18 24 22 24 31 43 36 37 39
Wind_Direction
257 258 254 259 269 238 227 219 218 207 206 198 195 187 183 181 178 173 170 168 167 170 173 175 172 168 181 190 186 194 200 193 151
242 253 252 255 247 229 227 227 214 212 205 202 200 194 190 188 183 182 183 182 179 184 193 195 190 184 200 200 195 202 186 187 130
243 241 247 252 249 240 228 220 217 215 209 205 205 199 196 195 190 186 184 183 199 210 205 204 194 188 198 201 197 192 182 166 144
239 240 239 247 245 240 233 226 217 213 217 210 207 205 202 202 198 194 199 209 217 218 219 219 211 184 204 202 192 184 186 174 181
240 239 238 238 241 241 242 235 225 223 221 217 215 211 208 204 204 207 211 215 222 228 222 223 219 190 211 202 211 185 193 199 206
241 240 238 233 236 242 243 240 239 231 224 218 220 214 213 212 213 215 219 223 224 238 233 245 211 201 209 202 182 199 199 202 210
253 242 242 240 236 235 237 242 241 233 229 220 220 221 222 223 222 224 227 229 235 230 247 257 213 208 212 211 205 210 202 212 218
252 243 244 243 238 237 243 243 240 238 231 229 226 225 227 228 230 231 232 236 238 237 253 255 222 214 216 216 217 215 208 219 226
251 261 245 243 244 240 240 243 246 241 239 236 236 236 235 234 235 238 238 243 243 244 249 251 233 224 225 217 215 234 218 220 230
247 251 263 244 241 250 242 251 242 239 242 244 246 241 241 242 241 236 234 239 242 246 247 251 244 235 229 220 222 236 237 225 222
229 251 261 256 253 259 254 220 235 239 242 243 245 249 237 241 243 240 239 244 247 248 249 248 247 244 238 227 226 232 237 231 227
236 245 261 266 267 267 265 268 266 256 251 250 249 251 254 246 242 236 238 241 247 243 249 246 252 249 244 234 234 242 242 244 230
321 273 265 271 274 273 270 269 265 266 261 257 256 255 255 257 248 245 246 241 242 249 252 251 246 254 250 243 238 243 243 242 230
347 329 329 316 298 291 287 280 282 279 270 267 262 259 259 262 255 248 250 246 243 252 248 250 246 254 251 252 246 239 243 242 234
326 322 319 314 304 296 295 286 276 275 274 273 268 270 260 267 252 257 242 256 256 251 255 251 252 248 253 252 252 248 244 242 238
329 325 326 325 321 314 303 286 275 266 270 272 271 266 264 263 259 263 247 242 245 247 268 258 256 257 248 245 253 252 249 239 238
358 355 347 338 332 332 316 297 281 270 272 274 277 284 273 262 260 264 264 251 254 257 257 258 256 257 259 247 252 251 248 245 241
352 353 350 350 350 343 340 334 318 300 279 280 266 294 261 283 255 255 254 260 259 259 264 264 261 258 259 254 255 259 247 247 245
341 337 335 335 336 334 340 343 343 335 309 290 252 248 267 286 278 272 259 254 244 243 248 258 266 253 247 258 255 258 249 242 243
343 339 336 327 323 328 332 331 342 342 332 319 293 264 253 259 269 261 255 267 246 264 259 250 259 257 260 251 253 256 247 243 245